| time (UTC) | temp F | wind direction | speed MPH | gust MPH | rain 1hr in | rain 24hr in | rain mn in | humidity % | barometer mb |
| 20260902063204 | 69 | 337 | 0.0 | 2.0 | 0.00 | 6.05 | 1.01 | 75 | 1017.9 |
| 20260902062404 | 69 | 341 | 1.0 | 3.0 | 0.00 | 6.05 | 1.01 | 76 | 1017.8 |
| 20260902061604 | 69 | 350 | 1.0 | 3.0 | 0.00 | 6.05 | 1.01 | 75 | 1017.8 |
| 20260902060005 | 69 | 339 | 0.0 | 2.0 | 0.00 | 6.05 | 1.01 | 75 | 1017.9 |
| 20260902055204 | 69 | 310 | 0.0 | 3.0 | 0.00 | 6.05 | 1.01 | 76 | 1017.8 |
| 20260902054804 | 69 | 325 | 1.0 | 3.0 | 0.00 | 6.05 | 1.01 | 76 | 1017.7 |
| 20260902054404 | 69 | 332 | 1.0 | 3.0 | 0.00 | 6.05 | 1.01 | 76 | 1017.7 |
| 20260902054004 | 69 | 338 | 0.0 | 2.0 | 0.00 | 6.05 | 1.01 | 75 | 1017.7 |
| 20260902053604 | 69 | 334 | 0.0 | 1.0 | 0.00 | 6.05 | 1.01 | 76 | 1017.6 |
| 20260902053203 | 69 | 323 | 0.0 | 2.0 | 0.00 | 6.05 | 1.01 | 77 | 1017.6 |
| 20260902052804 | 69 | 326 | 0.0 | 2.0 | 0.00 | 6.05 | 1.01 | 77 | 1017.4 |
| 20260902052404 | 69 | 331 | 0.0 | 2.0 | 0.00 | 6.05 | 1.01 | 76 | 1017.3 |
| 20260902052005 | 69 | 336 | 0.0 | 2.0 | 0.00 | 6.05 | 1.01 | 77 | 1017.4 |
| 20260902051604 | 68 | 302 | 1.0 | 3.0 | 0.00 | 6.05 | 1.01 | 77 | 1017.4 |
| 20260902051204 | 68 | 298 | 1.0 | 3.0 | 0.00 | 6.05 | 1.01 | 77 | 1017.5 |
| 20260902050804 | 68 | 310 | 1.0 | 4.0 | 0.00 | 6.05 | 1.01 | 77 | 1017.5 |
| 20260902050404 | 68 | 324 | 2.0 | 4.0 | 0.00 | 6.05 | 1.01 | 77 | 1017.5 |
| 20260902050007 | 68 | 334 | 2.0 | 5.0 | 0.00 | 6.05 | 1.01 | 77 | 1017.5 |
| 20260902045604 | 69 | 337 | 2.0 | 5.0 | 0.00 | 6.05 | 1.01 | 77 | 1017.4 |
| 20260902045204 | 69 | 330 | 2.0 | 5.0 | 0.00 | 6.05 | 1.01 | 76 | 1017.3 |
| 20260902044405 | 69 | 246 | 1.0 | 3.0 | 1.00 | 6.05 | 1.01 | 76 | 1017.3 |
| 20260902044004 | 69 | 244 | 1.0 | 3.0 | 1.00 | 6.05 | 1.01 | 77 | 1017.4 |
| 20260902043604 | 69 | 293 | 1.0 | 3.0 | 1.00 | 6.05 | 1.01 | 77 | 1017.4 |
| 20260902043204 | 69 | 320 | 1.0 | 4.0 | 1.00 | 6.05 | 1.01 | 77 | 1017.3 |
| 20260902042804 | 68 | 321 | 3.0 | 6.0 | 1.00 | 6.05 | 1.01 | 78 | 1017.3 |
| 20260902042404 | 68 | 324 | 3.0 | 6.0 | 1.00 | 6.05 | 1.01 | 78 | 1017.3 |
| 20260902042005 | 68 | 325 | 3.0 | 6.0 | 1.00 | 6.05 | 1.01 | 77 | 1017.2 |
| 20260902041604 | 68 | 324 | 2.0 | 6.0 | 1.00 | 6.05 | 1.01 | 78 | 1017.3 |
| 20260902041204 | 69 | 338 | 3.0 | 6.0 | 1.00 | 6.05 | 1.01 | 78 | 1017.2 |
| 20260902040804 | 69 | 343 | 3.0 | 6.0 | 1.00 | 6.05 | 1.01 | 76 | 1017.2 |
| 20260902040404 | 69 | 348 | 2.0 | 6.0 | 1.00 | 6.05 | 1.01 | 76 | 1017.2 |
| 20260902040004 | 69 | 346 | 1.0 | 3.0 | 1.00 | 6.05 | 1.01 | 76 | 1017.1 |
| 20260902035604 | 69 | 318 | 1.0 | 3.0 | 1.00 | 6.05 | 1.01 | 75 | 1017.2 |
| 20260902035204 | 69 | 316 | 1.0 | 3.0 | 1.00 | 6.05 | 1.01 | 75 | 1017.1 |
| 20260902034804 | 69 | 308 | 0.0 | 3.0 | 1.00 | 6.05 | 1.01 | 76 | 1017.2 |
| 20260902034004 | 69 | 0 | 0.0 | 0.0 | 0.00 | 5.05 | 0.01 | 77 | 1017.2 |
| 20260902033604 | 70 | 0 | 0.0 | 0.0 | 0.00 | 5.05 | 0.01 | 77 | 1017.1 |
| 20260902033205 | 70 | 0 | 0.0 | 0.0 | 0.00 | 5.05 | 0.01 | 78 | 1017.2 |
| 20260902032804 | 70 | 0 | 0.0 | 0.0 | 0.00 | 5.05 | 0.01 | 77 | 1017.3 |
| 20260902032404 | 70 | 0 | 0.0 | 0.0 | 0.00 | 5.05 | 0.01 | 77 | 1017.2 |
| 20260902031605 | 70 | 0 | 0.0 | 0.0 | 0.00 | 5.05 | 0.01 | 76 | 1017.2 |
| 20260902031204 | 70 | 0 | 0.0 | 0.0 | 0.00 | 5.05 | 0.01 | 76 | 1017.3 |
| 20260902030804 | 70 | 0 | 0.0 | 0.0 | 0.00 | 5.05 | 0.01 | 77 | 1017.3 |
| 20260902030404 | 70 | 0 | 0.0 | 0.0 | 0.00 | 5.05 | 0.01 | 76 | 1017.3 |
| 20260902030005 | 70 | 0 | 0.0 | 0.0 | 0.00 | 5.05 | 0.01 | 76 | 1017.3 |
| 20260902025604 | 71 | 0 | 0.0 | 0.0 | 0.00 | 5.05 | 0.01 | 76 | 1017.3 |
| 20260902025204 | 71 | 0 | 0.0 | 0.0 | 0.00 | 5.05 | 0.01 | 76 | 1017.2 |
| 20260902024804 | 71 | 0 | 0.0 | 0.0 | 0.00 | 5.05 | 0.01 | 75 | 1017.3 |
| 20260902024005 | 71 | 0 | 0.0 | 0.0 | 0.00 | 5.05 | 0.01 | 75 | 1017.3 |
| 20260902023604 | 71 | 0 | 0.0 | 0.0 | 0.00 | 5.05 | 0.01 | 74 | 1017.2 |
| 20260902023204 | 71 | 0 | 0.0 | 0.0 | 0.00 | 5.05 | 0.01 | 74 | 1017.0 |
| 20260902022804 | 71 | 0 | 0.0 | 0.0 | 0.00 | 5.05 | 0.01 | 75 | 1016.9 |
| 20260902021604 | 71 | 0 | 0.0 | 0.0 | 0.00 | 5.05 | 0.01 | 75 | 1016.9 |
| 20260902021204 | 71 | 0 | 0.0 | 0.0 | 0.00 | 5.05 | 0.01 | 75 | 1017.0 |
| 20260902020804 | 71 | 0 | 0.0 | 0.0 | 0.00 | 5.05 | 0.01 | 76 | 1017.1 |
| 20260902020404 | 71 | 0 | 0.0 | 0.0 | 0.00 | 5.05 | 0.01 | 75 | 1017.0 |
| 20260902020005 | 71 | 0 | 0.0 | 0.0 | 0.00 | 5.05 | 0.01 | 75 | 1017.0 |
| 20260902015604 | 71 | 0 | 0.0 | 0.0 | 0.00 | 5.05 | 0.01 | 74 | 1017.0 |
| 20260902015205 | 71 | 0 | 0.0 | 0.0 | 0.00 | 5.05 | 0.01 | 75 | 1017.0 |
| 20260902014404 | 71 | 0 | 0.0 | 0.0 | 0.01 | 5.05 | 0.01 | 75 | 1017.0 |
| 20260902014005 | 72 | 0 | 0.0 | 0.0 | 0.01 | 5.05 | 0.01 | 75 | 1017.0 |
| 20260902013604 | 72 | 0 | 0.0 | 0.0 | 0.01 | 5.05 | 0.01 | 75 | 1017.0 |
| 20260902013204 | 72 | 0 | 0.0 | 0.0 | 0.01 | 5.05 | 0.01 | 75 | 1017.0 |
| 20260902012804 | 72 | 0 | 0.0 | 0.0 | 0.01 | 5.05 | 0.01 | 75 | 1017.0 |
| 20260902012404 | 72 | 0 | 0.0 | 0.0 | 0.01 | 5.05 | 0.01 | 75 | 1017.1 |
| 20260902012004 | 72 | 0 | 0.0 | 0.0 | 0.01 | 5.05 | 0.01 | 75 | 1017.0 |
| 20260902011604 | 72 | 0 | 0.0 | 0.0 | 0.01 | 5.05 | 0.01 | 74 | 1017.0 |
| 20260902011204 | 72 | 0 | 0.0 | 0.0 | 0.01 | 5.05 | 0.01 | 75 | 1017.1 |
| 20260902010804 | 72 | 0 | 0.0 | 0.0 | 0.01 | 5.05 | 0.01 | 75 | 1017.2 |
| 20260902010404 | 72 | 0 | 0.0 | 0.0 | 0.01 | 5.05 | 0.01 | 75 | 1017.1 |
| 20260902010005 | 71 | 251 | 0.0 | 1.0 | 0.01 | 5.05 | 0.01 | 75 | 1017.2 |
| 20260902005604 | 71 | 253 | 0.0 | 1.0 | 0.01 | 5.05 | 0.01 | 76 | 1017.1 |
| 20260902005204 | 71 | 291 | 0.0 | 2.0 | 0.01 | 5.05 | 0.01 | 75 | 1017.1 |
| 20260902004804 | 71 | 322 | 0.0 | 2.0 | 0.00 | 5.04 | 0.00 | 74 | 1017.0 |
| 20260902004404 | 71 | 49 | 0.0 | 1.0 | 0.00 | 5.04 | 0.00 | 74 | 1017.0 |
| 20260902004004 | 71 | 347 | 0.0 | 2.0 | 0.00 | 5.04 | 0.00 | 73 | 1017.0 |
| 20260902003604 | 71 | 329 | 1.0 | 3.0 | 0.00 | 5.04 | 0.00 | 74 | 1016.9 |
| 20260902003204 | 71 | 332 | 1.0 | 3.0 | 0.00 | 5.04 | 0.00 | 74 | 1017.0 |
| 20260902002804 | 71 | 334 | 2.0 | 5.0 | 0.00 | 5.04 | 0.00 | 74 | 1017.0 |
| 20260902002004 | 71 | 345 | 4.0 | 6.0 | 0.00 | 5.04 | 0.00 | 74 | 1017.0 |
| 20260902001604 | 71 | 348 | 3.0 | 5.0 | 0.00 | 5.04 | 0.00 | 74 | 1017.0 |
| 20260902001204 | 71 | 345 | 2.0 | 5.0 | 0.00 | 5.04 | 0.00 | 74 | 1017.0 |
| 20260902000404 | 71 | 227 | 1.0 | 3.0 | 0.00 | 5.04 | 0.00 | 75 | 1017.0 |
| 20260902000004 | 71 | 231 | 1.0 | 4.0 | 0.00 | 5.04 | 0.00 | 77 | 1017.0 |
| 20260901235604 | 71 | 261 | 1.0 | 4.0 | 0.00 | 5.04 | 0.00 | 76 | 1016.9 |
| 20260901235204 | 72 | 305 | 1.0 | 3.0 | 0.00 | 5.04 | 0.00 | 75 | 1017.0 |
| 20260901234804 | 72 | 313 | 1.0 | 3.0 | 0.00 | 5.04 | 0.00 | 74 | 1016.9 |
| 20260901234404 | 72 | 307 | 1.0 | 2.0 | 0.00 | 5.04 | 0.00 | 75 | 1017.0 |
| 20260901234004 | 72 | 307 | 1.0 | 3.0 | 0.00 | 5.04 | 0.00 | 75 | 1017.0 |
| 20260901233604 | 72 | 325 | 1.0 | 4.0 | 0.00 | 5.04 | 0.00 | 74 | 1017.0 |
| 20260901233204 | 72 | 338 | 2.0 | 4.0 | 0.00 | 5.04 | 0.00 | 74 | 1017.0 |
| 20260901232804 | 72 | 353 | 1.0 | 3.0 | 0.00 | 5.04 | 0.00 | 73 | 1017.1 |
| 20260901232005 | 72 | 355 | 1.0 | 4.0 | 0.00 | 5.04 | 0.00 | 73 | 1017.0 |
| 20260901231604 | 72 | 340 | 1.0 | 4.0 | 0.00 | 5.04 | 0.00 | 73 | 1017.1 |
| 20260901231204 | 72 | 329 | 1.0 | 4.0 | 0.00 | 5.04 | 0.00 | 73 | 1017.1 |
| 20260901230803 | 72 | 299 | 1.0 | 2.0 | 0.00 | 5.04 | 0.00 | 75 | 1017.0 |
| 20260901230404 | 72 | 292 | 1.0 | 2.0 | 0.00 | 5.04 | 0.00 | 75 | 1017.0 |
| 20260901230005 | 72 | 300 | 1.0 | 2.0 | 0.00 | 5.04 | 0.00 | 75 | 1017.0 |
| 20260901225205 | 73 | 301 | 0.0 | 2.0 | 0.00 | 5.04 | 0.00 | 74 | 1017.0 |
| 20260901224804 | 73 | 268 | 0.0 | 1.0 | 0.00 | 5.04 | 0.00 | 75 | 1016.9 |
| 20260901224404 | 72 | 263 | 0.0 | 1.0 | 0.00 | 5.04 | 0.00 | 75 | 1017.1 |
| 20260901224004 | 72 | 272 | 0.0 | 2.0 | 0.00 | 5.04 | 0.00 | 75 | 1017.0 |
| 20260901223604 | 72 | 283 | 1.0 | 2.0 | 0.00 | 5.04 | 0.00 | 75 | 1017.1 |
| 20260901223204 | 72 | 262 | 1.0 | 3.0 | 0.00 | 5.04 | 0.00 | 75 | 1017.0 |
| 20260901222404 | 72 | 244 | 1.0 | 3.0 | 0.00 | 5.04 | 0.00 | 76 | 1017.0 |
| 20260901220803 | 72 | 231 | 2.0 | 3.0 | 0.00 | 5.04 | 0.00 | 76 | 1017.1 |
| 20260901220404 | 72 | 230 | 1.0 | 3.0 | 0.00 | 5.04 | 0.00 | 75 | 1017.0 |
| 20260901220008 | 73 | 245 | 1.0 | 3.0 | 0.00 | 5.04 | 0.00 | 75 | 1017.0 |
| 20260901215604 | 73 | 246 | 1.0 | 3.0 | 0.00 | 5.04 | 5.04 | 75 | 1016.9 |
| 20260901215204 | 73 | 267 | 0.0 | 2.0 | 0.00 | 5.04 | 5.04 | 74 | 1016.9 |
| 20260901214804 | 73 | 268 | 1.0 | 2.0 | 0.00 | 5.04 | 5.04 | 75 | 1016.9 |
| 20260901214404 | 73 | 266 | 1.0 | 2.0 | 0.00 | 5.04 | 5.04 | 75 | 1017.0 |
| 20260901214005 | 73 | 252 | 0.0 | 2.0 | 0.00 | 5.04 | 5.04 | 75 | 1017.0 |
| 20260901213604 | 73 | 240 | 0.0 | 2.0 | 0.00 | 5.04 | 5.04 | 75 | 1016.9 |
| 20260901213204 | 73 | 245 | 0.0 | 2.0 | 0.00 | 5.04 | 5.04 | 75 | 1016.9 |
| 20260901212804 | 74 | 258 | 0.0 | 2.0 | 0.00 | 5.04 | 5.04 | 74 | 1016.9 |
| 20260901212404 | 74 | 264 | 0.0 | 1.0 | 0.00 | 5.04 | 5.04 | 73 | 1016.8 |
| 20260901212004 | 74 | 231 | 1.0 | 3.0 | 0.00 | 5.04 | 5.04 | 72 | 1016.9 |
| 20260901211604 | 74 | 220 | 1.0 | 3.0 | 0.00 | 5.04 | 5.04 | 72 | 1016.8 |
| 20260901211204 | 74 | 213 | 2.0 | 4.0 | 0.00 | 5.04 | 5.04 | 73 | 1016.8 |
| 20260901210804 | 74 | 207 | 2.0 | 4.0 | 0.00 | 5.04 | 5.04 | 72 | 1016.8 |
| 20260901210404 | 74 | 202 | 2.0 | 4.0 | 0.00 | 5.04 | 5.04 | 72 | 1016.8 |
| 20260901210004 | 74 | 204 | 2.0 | 4.0 | 0.00 | 5.04 | 5.04 | 72 | 1016.8 |
| 20260901205604 | 74 | 207 | 1.0 | 4.0 | 0.00 | 5.04 | 5.04 | 72 | 1016.8 |
| 20260901205204 | 75 | 237 | 1.0 | 3.0 | 0.00 | 5.04 | 5.04 | 72 | 1016.7 |
| 20260901204804 | 75 | 229 | 2.0 | 3.0 | 0.00 | 5.04 | 5.04 | 72 | 1016.8 |
| 20260901204404 | 75 | 226 | 2.0 | 3.0 | 0.00 | 5.04 | 5.04 | 72 | 1016.7 |
| 20260901204004 | 75 | 227 | 1.0 | 4.0 | 0.00 | 5.04 | 5.04 | 72 | 1016.7 |
| 20260901203604 | 75 | 265 | 1.0 | 4.0 | 0.00 | 5.04 | 5.04 | 72 | 1016.5 |
| 20260901203205 | 75 | 314 | 2.0 | 6.0 | 0.00 | 5.04 | 5.04 | 71 | 1016.5 |
| 20260901202004 | 75 | 269 | 2.0 | 4.0 | 0.00 | 5.04 | 5.04 | 73 | 1016.5 |
| 20260901201604 | 74 | 279 | 2.0 | 4.0 | 0.00 | 5.04 | 5.04 | 74 | 1016.5 |
| 20260901201204 | 74 | 311 | 3.0 | 5.0 | 0.00 | 5.04 | 5.04 | 75 | 1016.6 |
| 20260901200803 | 73 | 314 | 3.0 | 5.0 | 0.00 | 5.04 | 5.04 | 76 | 1016.5 |
| 20260901200404 | 74 | 317 | 3.0 | 5.0 | 0.00 | 5.04 | 5.04 | 74 | 1016.3 |
| 20260901200005 | 74 | 319 | 3.0 | 5.0 | 0.00 | 5.04 | 5.04 | 73 | 1016.3 |
| 20260901195604 | 74 | 328 | 2.0 | 5.0 | 0.00 | 5.04 | 5.04 | 73 | 1016.2 |
| 20260901195204 | 75 | 314 | 1.0 | 5.0 | 0.00 | 5.04 | 5.04 | 72 | 1016.2 |
| 20260901194804 | 75 | 246 | 2.0 | 5.0 | 0.00 | 5.04 | 5.04 | 72 | 1016.1 |
| 20260901194403 | 75 | 227 | 3.0 | 6.0 | 0.00 | 5.04 | 5.04 | 72 | 1016.2 |
| 20260901194005 | 75 | 225 | 3.0 | 6.0 | 0.00 | 5.04 | 5.04 | 72 | 1016.0 |
| 20260901193604 | 75 | 225 | 2.0 | 5.0 | 0.00 | 5.04 | 5.04 | 72 | 1015.9 |
| 20260901193204 | 76 | 228 | 1.0 | 4.0 | 0.00 | 5.04 | 5.04 | 72 | 1015.9 |
| 20260901192804 | 76 | 242 | 0.0 | 2.0 | 0.00 | 5.04 | 5.04 | 72 | 1016.0 |
| 20260901192404 | 76 | 223 | 1.0 | 6.0 | 0.00 | 5.04 | 5.04 | 72 | 1016.0 |
| 20260901192005 | 75 | 215 | 3.0 | 7.0 | 0.00 | 5.04 | 5.04 | 72 | 1016.0 |
| 20260901191604 | 75 | 208 | 4.0 | 7.0 | 0.00 | 5.04 | 5.04 | 72 | 1015.9 |
| 20260901191204 | 76 | 207 | 4.0 | 7.0 | 0.00 | 5.04 | 5.04 | 72 | 1015.8 |
| 20260901190804 | 76 | 206 | 5.0 | 8.0 | 0.00 | 5.04 | 5.04 | 71 | 1015.8 |
| 20260901190405 | 76 | 206 | 5.0 | 8.0 | 0.00 | 5.04 | 5.04 | 71 | 1015.7 |
| 20260901190004 | 76 | 206 | 5.0 | 8.0 | 0.00 | 5.04 | 5.04 | 70 | 1015.6 |
| 20260901185604 | 76 | 212 | 4.0 | 7.0 | 0.00 | 5.04 | 5.04 | 70 | 1015.6 |
| 20260901185204 | 77 | 213 | 4.0 | 7.0 | 0.00 | 5.04 | 5.04 | 70 | 1015.5 |
| 20260901184804 | 76 | 210 | 4.0 | 6.0 | 0.00 | 5.04 | 5.04 | 71 | 1015.5 |
| 20260901184404 | 76 | 211 | 3.0 | 5.0 | 0.00 | 5.04 | 5.04 | 71 | 1015.5 |
| 20260901184004 | 77 | 230 | 3.0 | 5.0 | 0.00 | 5.04 | 5.04 | 71 | 1015.4 |
| 20260901183604 | 77 | 247 | 3.0 | 5.0 | 0.00 | 5.04 | 5.04 | 70 | 1015.4 |
| 20260901183205 | 77 | 241 | 2.0 | 5.0 | 0.00 | 5.04 | 5.04 | 71 | 1015.3 |
| 20260901182804 | 77 | 215 | 3.0 | 7.0 | 0.00 | 5.04 | 5.04 | 71 | 1015.2 |
| 20260901182404 | 77 | 209 | 3.0 | 7.0 | 0.00 | 5.04 | 5.04 | 70 | 1015.2 |
| 20260901182004 | 78 | 210 | 3.0 | 7.0 | 0.00 | 5.04 | 5.04 | 70 | 1015.1 |
| 20260901181604 | 78 | 210 | 3.0 | 6.0 | 0.00 | 5.04 | 5.04 | 69 | 1015.2 |
| 20260901181204 | 78 | 210 | 3.0 | 6.0 | 0.00 | 5.04 | 5.04 | 69 | 1015.1 |
| 20260901180804 | 78 | 212 | 1.0 | 6.0 | 0.00 | 5.04 | 5.04 | 68 | 1015.0 |
| 20260901180404 | 78 | 225 | 1.0 | 5.0 | 0.00 | 5.04 | 5.04 | 68 | 1015.2 |
| 20260901180004 | 78 | 220 | 2.0 | 6.0 | 0.00 | 5.04 | 5.04 | 69 | 1015.1 |
| 20260901175604 | 78 | 214 | 4.0 | 7.0 | 0.00 | 5.04 | 5.04 | 69 | 1015.0 |
| 20260901175204 | 78 | 211 | 4.0 | 7.0 | 0.00 | 5.04 | 5.04 | 69 | 1015.0 |
| 20260901174404 | 79 | 204 | 5.0 | 7.0 | 0.00 | 5.04 | 5.04 | 69 | 1014.9 |
| 20260901174005 | 79 | 201 | 5.0 | 8.0 | 0.00 | 5.04 | 5.04 | 68 | 1015.0 |
| 20260901173604 | 79 | 206 | 4.0 | 8.0 | 0.00 | 5.04 | 5.04 | 68 | 1014.8 |
| 20260901173204 | 80 | 213 | 3.0 | 5.0 | 0.00 | 5.04 | 5.04 | 67 | 1014.9 |
| 20260901172804 | 80 | 218 | 3.0 | 5.0 | 0.00 | 5.04 | 5.04 | 65 | 1014.8 |
| 20260901172403 | 80 | 211 | 3.0 | 5.0 | 0.00 | 5.04 | 5.04 | 65 | 1014.8 |
| 20260901172004 | 80 | 216 | 2.0 | 5.0 | 0.00 | 5.04 | 5.04 | 64 | 1014.8 |
| 20260901171604 | 80 | 230 | 1.0 | 4.0 | 0.00 | 5.04 | 5.04 | 64 | 1014.8 |
| 20260901171204 | 80 | 230 | 2.0 | 5.0 | 0.00 | 5.04 | 5.04 | 63 | 1014.9 |
| 20260901170804 | 80 | 214 | 3.0 | 6.0 | 0.00 | 5.04 | 5.04 | 64 | 1014.8 |
| 20260901170403 | 80 | 210 | 4.0 | 6.0 | 0.00 | 5.04 | 5.04 | 63 | 1014.7 |
| 20260901170005 | 80 | 211 | 3.0 | 6.0 | 0.00 | 5.04 | 5.04 | 64 | 1014.8 |
| 20260901165604 | 80 | 212 | 2.0 | 5.0 | 0.00 | 5.04 | 5.04 | 64 | 1014.7 |
| 20260901165204 | 81 | 211 | 2.0 | 5.0 | 0.00 | 5.04 | 5.04 | 64 | 1014.7 |
| 20260901164804 | 81 | 208 | 2.0 | 4.0 | 0.00 | 5.04 | 5.04 | 63 | 1014.8 |
| 20260901164404 | 81 | 214 | 2.0 | 4.0 | 0.00 | 5.04 | 5.04 | 62 | 1014.7 |
| 20260901164004 | 82 | 287 | 1.0 | 4.0 | 0.00 | 5.04 | 5.04 | 61 | 1014.8 |
| 20260901163604 | 81 | 326 | 1.0 | 2.0 | 0.00 | 5.04 | 5.04 | 61 | 1014.7 |
| 20260901163205 | 82 | 326 | 1.0 | 2.0 | 0.00 | 5.04 | 5.04 | 60 | 1014.7 |
| 20260901162804 | 82 | 29 | 1.0 | 3.0 | 0.00 | 5.04 | 5.04 | 59 | 1014.7 |
| 20260901162005 | 82 | 69 | 2.0 | 5.0 | 0.00 | 5.04 | 5.04 | 58 | 1014.7 |
| 20260901161604 | 83 | 74 | 2.0 | 5.0 | 0.00 | 5.04 | 5.04 | 57 | 1014.7 |
| 20260901161204 | 82 | 70 | 2.0 | 7.0 | 0.00 | 5.04 | 5.04 | 58 | 1014.8 |
| 20260901160804 | 82 | 79 | 3.0 | 7.0 | 0.00 | 5.04 | 5.04 | 57 | 1014.6 |
| 20260901160403 | 83 | 90 | 3.0 | 7.0 | 0.00 | 5.04 | 5.04 | 57 | 1014.6 |
| 20260901155604 | 83 | 88 | 5.0 | 9.0 | 0.00 | 5.04 | 5.04 | 56 | 1014.6 |
| 20260901155204 | 83 | 89 | 5.0 | 9.0 | 0.00 | 5.04 | 5.04 | 56 | 1014.7 |
| 20260901154804 | 83 | 84 | 4.0 | 7.0 | 0.00 | 5.04 | 5.04 | 56 | 1014.7 |
| 20260901154403 | 83 | 85 | 4.0 | 8.0 | 0.00 | 5.04 | 5.04 | 55 | 1014.8 |
| 20260901154004 | 83 | 92 | 4.0 | 8.0 | 0.00 | 5.04 | 5.04 | 56 | 1014.7 |
| 20260901153604 | 83 | 101 | 4.0 | 8.0 | 0.00 | 5.04 | 5.04 | 55 | 1014.7 |
| 20260901153204 | 84 | 91 | 3.0 | 8.0 | 0.00 | 5.04 | 5.04 | 55 | 1014.7 |
| 20260901152804 | 83 | 74 | 3.0 | 7.0 | 0.00 | 5.04 | 5.04 | 56 | 1014.7 |
| 20260901152404 | 83 | 85 | 4.0 | 9.0 | 0.00 | 5.04 | 5.04 | 56 | 1014.7 |
| 20260901151204 | 83 | 77 | 4.0 | 11.0 | 0.00 | 5.04 | 5.04 | 56 | 1014.7 |
| 20260901150804 | 83 | 60 | 4.0 | 9.0 | 0.00 | 5.04 | 5.04 | 57 | 1014.6 |
| 20260901150403 | 83 | 66 | 5.0 | 10.0 | 0.00 | 5.04 | 5.04 | 58 | 1014.6 |
| 20260901150005 | 83 | 74 | 5.0 | 10.0 | 0.00 | 5.04 | 5.04 | 57 | 1014.8 |
| 20260901145604 | 83 | 70 | 5.0 | 9.0 | 0.00 | 5.04 | 5.04 | 56 | 1014.8 |
| 20260901145204 | 83 | 69 | 6.0 | 11.0 | 0.00 | 5.04 | 5.04 | 57 | 1014.8 |
| 20260901144804 | 83 | 74 | 7.0 | 12.0 | 0.00 | 5.04 | 5.04 | 58 | 1014.8 |
| 20260901144404 | 83 | 76 | 6.0 | 12.0 | 0.00 | 5.04 | 5.04 | 57 | 1014.8 |
| 20260901144004 | 83 | 71 | 5.0 | 10.0 | 0.00 | 5.04 | 5.04 | 58 | 1014.8 |
| 20260901143604 | 83 | 80 | 6.0 | 10.0 | 0.00 | 5.04 | 5.04 | 58 | 1014.8 |
| 20260901143204 | 83 | 81 | 5.0 | 10.0 | 0.00 | 5.04 | 5.04 | 57 | 1014.9 |
| 20260901142804 | 83 | 80 | 5.0 | 10.0 | 0.00 | 5.04 | 5.04 | 56 | 1014.9 |
| 20260901142404 | 84 | 84 | 4.0 | 10.0 | 0.00 | 5.04 | 5.04 | 56 | 1014.9 |
| 20260901142004 | 84 | 103 | 3.0 | 10.0 | 0.00 | 5.04 | 5.04 | 56 | 1015.0 |
| 20260901141604 | 84 | 112 | 4.0 | 11.0 | 0.00 | 5.04 | 5.04 | 56 | 1015.0 |
| 20260901141204 | 84 | 100 | 4.0 | 11.0 | 1.00 | 5.04 | 5.04 | 56 | 1015.0 |
| 20260901140804 | 84 | 98 | 5.0 | 11.0 | 1.01 | 5.04 | 5.04 | 55 | 1015.0 |
| 20260901140404 | 84 | 100 | 5.0 | 11.0 | 1.01 | 5.04 | 5.04 | 56 | 1014.9 |
| 20260901140004 | 84 | 98 | 4.0 | 13.0 | 2.01 | 5.04 | 5.04 | 56 | 1014.9 |
| 20260901135604 | 84 | 92 | 5.0 | 13.0 | 2.01 | 5.04 | 5.04 | 56 | 1015.0 |
| 20260901134804 | 83 | 87 | 6.0 | 13.0 | 2.02 | 5.04 | 5.04 | 57 | 1015.1 |
| 20260901134404 | 83 | 87 | 5.0 | 11.0 | 2.02 | 5.04 | 5.04 | 57 | 1015.1 |
| 20260901134004 | 84 | 79 | 4.0 | 12.0 | 2.02 | 5.04 | 5.04 | 56 | 1015.1 |
| 20260901133604 | 84 | 83 | 5.0 | 12.0 | 2.02 | 5.04 | 5.04 | 56 | 1015.1 |
| 20260901132804 | 83 | 49 | 5.0 | 12.0 | 2.02 | 5.04 | 5.04 | 57 | 1015.2 |
| 20260901132404 | 82 | 36 | 5.0 | 10.0 | 2.02 | 5.04 | 5.04 | 58 | 1015.2 |
| 20260901132004 | 82 | 46 | 5.0 | 10.0 | 2.02 | 5.04 | 5.04 | 58 | 1015.4 |
| 20260901131604 | 82 | 36 | 5.0 | 10.0 | 2.02 | 5.04 | 5.04 | 58 | 1015.3 |
| 20260901131204 | 83 | 36 | 5.0 | 10.0 | 1.02 | 4.04 | 4.04 | 61 | 1015.3 |
| 20260901130804 | 82 | 29 | 5.0 | 10.0 | 1.01 | 4.03 | 4.03 | 58 | 1015.4 |
| 20260901130404 | 82 | 19 | 5.0 | 10.0 | 1.01 | 4.03 | 4.03 | 58 | 1015.3 |
| 20260901130004 | 83 | 25 | 5.0 | 11.0 | 0.01 | 3.03 | 3.03 | 61 | 1015.4 |
| 20260901125604 | 82 | 52 | 5.0 | 11.0 | 0.01 | 3.03 | 3.03 | 59 | 1015.6 |
| 20260901125204 | 82 | 67 | 5.0 | 12.0 | 0.00 | 3.02 | 3.02 | 58 | 1015.6 |
| 20260901124803 | 82 | 72 | 7.0 | 12.0 | 0.00 | 3.02 | 3.02 | 57 | 1015.6 |
| 20260901124404 | 81 | 81 | 7.0 | 12.0 | 0.00 | 3.02 | 3.02 | 58 | 1015.8 |
| 20260901124004 | 82 | 87 | 6.0 | 11.0 | 0.00 | 3.02 | 3.02 | 57 | 1015.7 |
| 20260901123605 | 82 | 79 | 7.0 | 12.0 | 0.00 | 3.02 | 3.02 | 57 | 1015.8 |
| 20260901122804 | 81 | 61 | 6.0 | 12.0 | 0.00 | 3.02 | 3.02 | 57 | 1015.9 |
| 20260901122404 | 81 | 63 | 5.0 | 11.0 | 0.00 | 3.02 | 3.02 | 57 | 1016.0 |
| 20260901122004 | 81 | 78 | 6.0 | 11.0 | 0.00 | 3.02 | 3.02 | 56 | 1015.9 |
| 20260901121604 | 81 | 77 | 7.0 | 11.0 | 0.00 | 3.02 | 3.02 | 57 | 1016.0 |
| 20260901120404 | 81 | 59 | 7.0 | 14.0 | 0.00 | 3.02 | 3.02 | 57 | 1016.0 |
| 20260901120005 | 81 | 63 | 7.0 | 14.0 | 0.00 | 3.02 | 3.02 | 56 | 1016.1 |
| 20260901115604 | 81 | 60 | 6.0 | 11.0 | 0.00 | 3.02 | 3.02 | 56 | 1016.1 |
| 20260901115203 | 82 | 50 | 4.0 | 10.0 | 0.00 | 3.02 | 3.02 | 56 | 1016.1 |
| 20260901114804 | 82 | 65 | 5.0 | 10.0 | 0.00 | 3.02 | 3.02 | 56 | 1016.0 |
| 20260901114404 | 81 | 64 | 5.0 | 10.0 | 0.00 | 3.02 | 3.02 | 55 | 1016.2 |
| 20260901114005 | 81 | 60 | 5.0 | 10.0 | 0.00 | 3.02 | 3.02 | 55 | 1016.1 |
| 20260901113604 | 81 | 62 | 5.0 | 10.0 | 0.00 | 3.02 | 3.02 | 55 | 1016.3 |
| 20260901113204 | 81 | 67 | 5.0 | 10.0 | 0.00 | 3.02 | 3.02 | 54 | 1016.3 |
| 20260901112805 | 81 | 68 | 6.0 | 11.0 | 0.00 | 3.02 | 3.02 | 54 | 1016.5 |
| 20260901112404 | 80 | 76 | 6.0 | 11.0 | 0.00 | 3.02 | 3.02 | 57 | 1016.4 |
| 20260901112004 | 80 | 84 | 6.0 | 11.0 | 0.00 | 3.02 | 3.02 | 57 | 1016.5 |
| 20260901111604 | 81 | 87 | 5.0 | 9.0 | 0.00 | 3.02 | 3.02 | 56 | 1016.4 |
| 20260901111204 | 81 | 90 | 6.0 | 9.0 | 0.00 | 3.02 | 3.02 | 54 | 1016.6 |
| 20260901110404 | 80 | 84 | 6.0 | 10.0 | 0.00 | 3.02 | 3.02 | 53 | 1016.6 |
| 20260901110004 | 81 | 77 | 6.0 | 11.0 | 0.00 | 3.02 | 3.02 | 52 | 1016.5 |
| 20260901105205 | 79 | 74 | 7.0 | 11.0 | 0.00 | 3.02 | 3.02 | 48 | 1016.5 |
| 20260901104804 | 80 | 75 | 7.0 | 10.0 | 0.00 | 3.02 | 3.02 | 50 | 1016.5 |
| 20260901104403 | 80 | 77 | 7.0 | 11.0 | 1.01 | 3.02 | 3.02 | 47 | 1016.6 |
| 20260901104004 | 79 | 80 | 7.0 | 11.0 | 2.01 | 3.02 | 3.02 | 46 | 1016.7 |
| 20260901103604 | 80 | 79 | 7.0 | 11.0 | 2.01 | 4.02 | 3.02 | 46 | 1016.6 |
| 20260901103203 | 79 | 78 | 6.0 | 10.0 | 2.02 | 4.02 | 3.02 | 46 | 1016.6 |
| 20260901102805 | 79 | 73 | 6.0 | 10.0 | 2.02 | 4.02 | 3.02 | 45 | 1016.7 |
| 20260901102404 | 79 | 69 | 5.0 | 9.0 | 2.02 | 4.02 | 3.02 | 45 | 1016.8 |
| 20260901102004 | 79 | 66 | 6.0 | 11.0 | 2.02 | 4.03 | 3.02 | 45 | 1016.7 |
| 20260901101604 | 78 | 64 | 6.0 | 12.0 | 2.02 | 4.03 | 3.02 | 44 | 1016.7 |
| 20260901101204 | 78 | 71 | 6.0 | 12.0 | 2.02 | 4.03 | 3.02 | 45 | 1016.8 |
| 20260901100004 | 78 | 88 | 6.0 | 11.0 | 2.02 | 4.03 | 3.02 | 46 | 1016.9 |
| 20260901095604 | 79 | 91 | 5.0 | 11.0 | 2.02 | 4.03 | 3.02 | 46 | 1016.9 |
| 20260901095204 | 79 | 100 | 5.0 | 9.0 | 2.02 | 5.03 | 3.02 | 46 | 1016.8 |
| 20260901094804 | 79 | 100 | 4.0 | 8.0 | 3.02 | 5.03 | 3.02 | 45 | 1016.8 |
| 20260901094404 | 79 | 95 | 3.0 | 7.0 | 2.02 | 4.03 | 2.02 | 46 | 1016.9 |
| 20260901094005 | 80 | 75 | 2.0 | 4.0 | 1.02 | 3.03 | 1.02 | 47 | 1016.9 |
| 20260901093603 | 80 | 86 | 2.0 | 6.0 | 1.02 | 4.03 | 1.02 | 47 | 1016.9 |
| 20260901093204 | 80 | 96 | 2.0 | 6.0 | 1.01 | 4.03 | 1.01 | 43 | 1016.9 |
| 20260901092805 | 79 | 114 | 2.0 | 6.0 | 1.01 | 4.03 | 1.01 | 42 | 1016.9 |
| 20260901092403 | 79 | 125 | 2.0 | 5.0 | 1.01 | 4.03 | 1.01 | 42 | 1017.0 |
| 20260901091604 | 79 | 120 | 2.0 | 6.0 | 1.01 | 4.03 | 1.01 | 45 | 1016.9 |
| 20260901091204 | 78 | 131 | 2.0 | 6.0 | 1.01 | 4.03 | 1.01 | 45 | 1017.0 |
| 20260901090403 | 79 | 39 | 1.0 | 4.0 | 1.01 | 4.03 | 1.01 | 44 | 1017.0 |
| 20260901090004 | 78 | 353 | 1.0 | 4.0 | 1.01 | 4.03 | 1.01 | 44 | 1017.0 |
| 20260901085604 | 78 | 341 | 1.0 | 4.0 | 1.01 | 5.03 | 1.01 | 44 | 1017.0 |
| 20260901085204 | 78 | 356 | 1.0 | 3.0 | 1.01 | 5.03 | 1.01 | 44 | 1016.9 |
| 20260901084004 | 76 | 41 | 1.0 | 3.0 | 0.00 | 4.03 | 0.00 | 44 | 1017.0 |
| 20260901083604 | 76 | 24 | 1.0 | 3.0 | 0.00 | 4.03 | 0.00 | 45 | 1017.1 |
| 20260901082803 | 76 | 2 | 2.0 | 5.0 | 0.00 | 4.03 | 0.00 | 47 | 1017.1 |
| 20260901082404 | 75 | 350 | 3.0 | 5.0 | 0.00 | 4.03 | 0.00 | 48 | 1017.2 |
| 20260901082004 | 75 | 343 | 3.0 | 6.0 | 0.00 | 4.03 | 0.00 | 49 | 1017.2 |
| 20260901081604 | 74 | 342 | 3.0 | 6.0 | 0.00 | 4.03 | 0.00 | 49 | 1017.2 |
| 20260901080805 | 72 | 335 | 4.0 | 5.0 | 0.00 | 5.04 | 0.00 | 51 | 1017.3 |
| 20260901080404 | 72 | 329 | 4.0 | 6.0 | 0.00 | 5.04 | 0.00 | 50 | 1017.2 |
| 20260901080004 | 72 | 321 | 4.0 | 6.0 | 0.00 | 5.04 | 0.00 | 51 | 1017.3 |
| 20260901075604 | 72 | 317 | 3.0 | 6.0 | 0.00 | 5.04 | 0.00 | 51 | 1017.2 |
| 20260901075204 | 73 | 325 | 1.0 | 6.0 | 0.00 | 5.04 | 0.00 | 50 | 1017.1 |
| 20260901074804 | 73 | 335 | 1.0 | 4.0 | 0.00 | 5.04 | 0.00 | 50 | 1017.1 |
| 20260901074005 | 72 | 349 | 2.0 | 5.0 | 0.00 | 5.04 | 0.00 | 50 | 1017.1 |
| 20260901073603 | 72 | 354 | 2.0 | 5.0 | 0.00 | 5.04 | 0.00 | 49 | 1017.1 |
| 20260901072803 | 72 | 340 | 2.0 | 5.0 | 0.00 | 5.04 | 0.00 | 52 | 1017.0 |
| 20260901072404 | 72 | 345 | 3.0 | 5.0 | 0.00 | 5.04 | 0.00 | 50 | 1017.0 |
| 20260901071604 | 72 | 344 | 4.0 | 8.0 | 0.00 | 5.04 | 0.00 | 51 | 1017.0 |
| 20260901071204 | 71 | 342 | 4.0 | 8.0 | 0.00 | 5.04 | 0.00 | 50 | 1016.9 |
| 20260901070805 | 71 | 344 | 4.0 | 8.0 | 0.00 | 5.04 | 0.00 | 51 | 1016.9 |
| 20260901070404 | 71 | 340 | 4.0 | 8.0 | 0.00 | 5.04 | 0.00 | 50 | 1016.9 |
| 20260901070004 | 71 | 336 | 3.0 | 6.0 | 0.00 | 5.04 | 0.00 | 51 | 1016.9 |
| 20260901065204 | 70 | 339 | 2.0 | 4.0 | 0.00 | 5.04 | 0.00 | 51 | 1016.9 |
| 20260901064804 | 71 | 354 | 3.0 | 7.0 | 0.00 | 5.04 | 0.00 | 50 | 1016.8 |
| 20260901064403 | 71 | 1 | 3.0 | 8.0 | 0.00 | 5.04 | 0.00 | 51 | 1016.8 |
| 20260901064004 | 70 | 359 | 3.0 | 8.0 | 0.00 | 5.04 | 0.00 | 51 | 1016.7 |
| 20260901063604 | 70 | 7 | 2.0 | 8.0 | 0.00 | 5.04 | 0.00 | 51 | 1016.7 |